Date String (YYYY-MM-DD hh:mm:ss) UTC,Instrument flags,Ambient pressure (hPa),Sample flow (lpm),Bypass flow (lpm),Sample temperature (°C),Ambient temperature (°C),ASC tube jacket temperature (°C),LED temperature (°C),Box temperature (°C),Sample RH (%),Span deviation,Mass concentration (μg/m³),Mass concentration (μg/m³),Mass concentration (μg/m³)
DateTimeUTC,F1_M11,P_M11,Q1_M11,Q2_M11,T1_M11,T2_M11,T3_M11,T4_M11,T5_M11,U1_M11,ZSPAN_M11,X2_M11,X0_M11,X1_M11
2023-05-26 17:00:00,,0830.6,5.00,0.00,29.8,28.3,00.0,38.2,31.5,29.3,0000.6,0007.95,0012.59,0007.27
2023-05-26 17:01:00,,0830.6,5.00,0.00,29.9,28.4,00.0,38.2,31.5,29.0,0000.6,0007.89,0012.20,0007.24
2023-05-26 17:02:00,,0830.6,5.01,0.00,29.9,28.4,00.0,38.2,31.5,29.1,0000.6,0007.83,0012.70,0007.21
2023-05-26 17:03:00,,0830.5,5.00,0.00,29.9,28.5,00.0,38.2,31.5,29.0,0000.8,0007.73,0012.51,0007.15
2023-05-26 17:04:00,,0830.4,5.01,0.00,29.9,28.5,00.0,38.2,31.6,29.0,0000.9,0007.68,0012.51,0007.10
2023-05-26 17:05:00,,0830.5,5.01,0.00,29.9,28.6,00.0,38.2,31.6,29.1,0001.2,0007.67,0012.60,0007.06
2023-05-26 17:06:00,,0830.4,4.99,0.00,30.0,28.3,00.0,38.2,31.6,29.0,0001.8,0007.62,0012.48,0007.01
2023-05-26 17:07:00,,0830.4,4.99,0.00,29.9,26.9,00.0,38.2,31.4,29.0,0002.1,0007.49,0011.70,0006.95
2023-05-26 17:08:00,,0830.4,5.01,0.00,29.9,25.7,00.0,38.1,31.2,29.6,0002.2,0007.41,0011.46,0006.89
2023-05-26 17:09:00,,0830.4,5.01,0.00,29.8,25.6,00.0,38.0,31.1,29.7,0002.2,0007.42,0011.57,0006.88
2023-05-26 17:10:00,,0830.4,5.00,0.00,29.7,25.8,00.0,38.0,31.0,30.1,0002.2,0007.41,0011.53,0006.87
2023-05-26 17:11:00,,0830.5,4.99,0.00,29.6,26.2,00.0,38.0,31.0,30.0,0002.2,0007.50,0012.63,0006.93
2023-05-26 17:12:00,,0830.5,4.99,0.00,29.6,26.5,00.0,38.0,31.1,30.0,0002.0,0007.57,0013.27,0006.99
2023-05-26 17:13:00,,0830.4,5.00,0.00,29.6,26.8,00.0,38.0,31.1,30.1,0002.2,0007.61,0012.75,0007.02
2023-05-26 17:14:00,,0830.4,5.01,0.00,29.6,27.1,00.0,38.0,31.1,30.2,0002.2,0007.66,0012.77,0007.06
2023-05-26 17:15:00,,0830.4,4.99,0.00,29.6,27.4,00.0,38.0,31.2,30.4,0002.3,0007.70,0012.89,0007.09
2023-05-26 17:16:00,,0830.4,5.00,0.00,29.6,27.5,00.0,38.0,31.2,29.9,0002.3,0007.69,0012.84,0007.08
2023-05-26 17:17:00,,0830.4,5.00,0.00,29.6,27.7,00.0,38.0,31.2,29.8,0002.2,0007.66,0012.96,0007.06
2023-05-26 17:18:00,,0830.4,5.01,0.00,29.6,27.8,00.0,38.0,31.2,29.8,0002.2,0007.69,0013.22,0007.09
2023-05-26 17:19:00,,0830.5,5.01,0.00,29.6,27.9,00.0,38.0,31.2,30.1,0002.2,0007.76,0013.36,0007.13
2023-05-26 17:20:00,,0830.4,5.01,0.00,29.6,28.0,00.0,38.0,31.3,30.0,0002.2,0007.82,0013.76,0007.20
2023-05-26 17:21:00,,0830.4,4.99,0.00,29.6,28.1,00.0,38.0,31.3,29.8,0002.4,0007.90,0014.01,0007.27
2023-05-26 17:22:00,,0830.3,5.00,0.00,29.7,28.2,00.0,38.0,31.3,30.1,0002.5,0007.86,0013.16,0007.26
2023-05-26 17:23:00,,0830.4,5.01,0.00,29.7,28.2,00.0,38.0,31.3,29.9,0002.4,0007.85,0012.65,0007.25
2023-05-26 17:24:00,,0830.3,5.00,0.00,29.7,28.3,00.0,38.0,31.4,30.4,0002.4,0007.83,0012.65,0007.23
2023-05-26 17:25:00,,0830.3,5.01,0.00,29.7,28.3,00.0,38.0,31.4,29.5,0002.4,0007.83,0012.90,0007.23
2023-05-26 17:26:00,,0830.3,5.00,0.00,29.7,28.4,00.0,38.0,31.4,29.7,0002.1,0007.84,0013.37,0007.25
2023-05-26 17:27:00,,0830.3,5.00,0.00,29.8,28.4,00.0,38.1,31.4,29.4,0002.3,0007.93,0014.02,0007.29
2023-05-26 17:28:00,,0830.3,5.00,0.00,29.8,28.4,00.0,38.1,31.5,29.0,0002.5,0008.04,0014.83,0007.39
2023-05-26 17:29:00,,0830.2,5.00,0.00,29.8,28.5,00.0,38.1,31.5,28.9,0002.4,0008.09,0014.89,0007.41
2023-05-26 17:30:00,,0830.2,5.00,0.00,29.8,28.5,00.0,38.1,31.5,29.1,0001.9,0008.09,0015.00,0007.42
2023-05-26 17:31:00,,0830.2,4.98,0.00,29.8,27.5,00.0,38.1,31.4,29.9,0001.9,0008.07,0014.61,0007.38
2023-05-26 17:32:00,,0830.3,5.00,0.00,29.8,26.2,00.0,38.0,31.2,29.6,0001.7,0008.02,0014.35,0007.34
2023-05-26 17:33:00,,0830.2,5.01,0.00,29.7,26.0,00.0,37.9,31.1,29.5,0001.8,0008.04,0014.27,0007.36
2023-05-26 17:34:00,,0830.1,4.99,0.00,29.6,26.2,00.0,37.9,31.0,29.9,0001.9,0008.09,0014.29,0007.39
2023-05-26 17:35:00,,0830.1,4.99,0.00,29.6,26.5,00.0,37.9,31.1,30.3,0001.8,0008.11,0014.35,0007.40
2023-05-26 17:36:00,,0830.1,5.00,0.00,29.6,26.8,00.0,37.9,31.1,30.6,0002.0,0008.14,0014.31,0007.42
2023-05-26 17:37:00,,0830.1,5.00,0.00,29.6,27.1,00.0,37.9,31.1,29.8,0002.2,0008.16,0013.85,0007.41
2023-05-26 17:38:00,,0830.1,5.00,0.00,29.6,27.3,00.0,37.9,31.2,30.1,0001.9,0008.14,0013.14,0007.41
2023-05-26 17:39:00,,0830.1,4.99,0.00,29.6,27.5,00.0,37.9,31.2,29.0,0001.5,0008.07,0012.34,0007.36
2023-05-26 17:40:00,,0830.1,5.00,0.00,29.6,27.7,00.0,37.9,31.2,28.9,0001.3,0008.06,0012.16,0007.34
2023-05-26 17:41:00,,0830.0,5.00,0.00,29.6,27.8,00.0,37.9,31.2,29.3,0001.7,0008.05,0012.00,0007.33
2023-05-26 17:42:00,,0830.0,5.00,0.00,29.6,27.9,00.0,38.0,31.3,29.1,0001.8,0008.01,0011.96,0007.32
2023-05-26 17:43:00,,0830.0,5.00,0.00,29.6,28.0,00.0,38.0,31.3,29.4,0001.9,0007.93,0011.83,0007.28
2023-05-26 17:44:00,,0830.0,5.00,0.00,29.6,28.1,00.0,38.0,31.3,29.9,0001.8,0007.88,0011.78,0007.21
2023-05-26 17:45:00,,0830.0,5.00,0.00,29.7,28.2,00.0,38.0,31.3,30.0,0001.7,0007.86,0012.08,0007.19
2023-05-26 17:46:00,,0830.0,5.01,0.00,29.7,28.3,00.0,38.0,31.4,30.0,0001.7,0007.90,0012.21,0007.23
2023-05-26 17:47:00,,0830.0,4.99,0.00,29.7,28.3,00.0,38.0,31.4,29.5,0001.3,0007.93,0012.14,0007.26
2023-05-26 17:48:00,,0829.9,4.99,0.00,29.7,28.4,00.0,38.0,31.4,29.9,0001.1,0007.94,0012.12,0007.29
2023-05-26 17:49:00,,0830.0,5.00,0.00,29.8,28.4,00.0,38.0,31.4,30.0,0001.2,0007.94,0012.12,0007.31
2023-05-26 17:50:00,,0830.0,5.00,0.00,29.8,28.4,00.0,38.1,31.5,29.5,0001.3,0008.01,0012.11,0007.39
2023-05-26 17:51:00,,0830.0,5.00,0.00,29.8,27.8,00.0,38.0,31.4,28.1,0001.0,0007.99,0012.02,0007.39
2023-05-26 17:52:00,,0830.0,5.01,0.00,29.8,26.3,00.0,37.9,31.2,28.8,0000.6,0007.98,0012.07,0007.38
2023-05-26 17:53:00,,0830.0,5.01,0.00,29.7,26.0,00.0,37.9,31.1,28.2,0000.6,0007.99,0012.16,0007.37
2023-05-26 17:54:00,,0830.1,5.01,0.00,29.6,26.1,00.0,37.9,31.0,29.1,0000.4,0008.04,0012.30,0007.41
2023-05-26 17:55:00,,0830.1,4.99,0.00,29.6,26.4,00.0,37.9,31.0,29.5,0000.2,0008.05,0012.39,0007.42
2023-05-26 17:56:00,,0830.1,4.99,0.00,29.5,26.7,00.0,37.9,31.0,30.0,0000.3,0008.00,0012.05,0007.39
2023-05-26 17:57:00,,0830.2,5.00,0.00,29.5,27.0,00.0,37.9,31.1,31.0,0000.3,0007.91,0011.82,0007.32
2023-05-26 17:58:00,,0830.3,5.01,0.00,29.5,27.3,00.0,37.9,31.1,30.5,0000.3,0007.87,0011.76,0007.28
2023-05-26 17:59:00,,0830.3,5.01,0.00,29.5,27.5,00.0,37.9,31.2,30.3,0000.5,0007.85,0011.72,0007.26
